Regional Weather Roundup
Issued by NWS

Home | Current Version | Previous Version | Text Only | Print | Product List | Glossary On
Versions: 1 2 3 4 5 6 7 8 9 10 11 12 13 14 15 16 17 18 19 20 21 22 23 24 25 26 27 28 29 30 31 32 33 34 35 36 37 38 39 40 41 42 43 44 45 46 47 48 49 50
000
ASUS45 KCYS 240710
RWRWY

WYOMING REGIONAL WEATHER ROUNDUP
NATIONAL WEATHER SERVICE CHEYENNE WY
100 AM MDT SUN MAY 24 2015

NOTE:  "FAIR" INDICATES FEW OR NO CLOUDS BELOW 12,000 FEET
WITH NO SIGNIFICANT WEATHER AND/OR OBSTRUCTIONS TO VISIBILITY.

WYZ001-240800-
YELLOWSTONE NATIONAL PARK

CITY           SKY/WX    TMP DP  RH WIND       PRES   REMARKS
LK YELLOWSTONE   N/A     38  33  82 VRB3      30.10F
W YELLOWSTONE  NOT AVBL

$$
WYZ002>013-054>058-071-098>099-240800-
NORTHERN WYOMING

CITY           SKY/WX    TMP DP  RH WIND       PRES   REMARKS
JACKSON        MOCLDY    43  41  93 N13       30.02F
CODY           CLOUDY    48  43  81 NW8       30.05S
GREYBULL       CLOUDY    52  48  86 N5        29.98F
WORLAND        MOCLDY    50  47  89 S5        29.98F
SHERIDAN       CLOUDY    49  47  93 NW3       30.04F
BUFFALO        CLOUDY    48  46  93 NW10      30.03F
GILLETTE       CLOUDY    50  47  89 N7        30.01S
HULETT         CLOUDY    50  48  93 NE10      30.03F FOG
NEWCASTLE      RAIN      50  50 100 W3        29.99F

$$
WYZ014>020-022>026-101>103-240800-
CENTRAL WYOMING

CITY           SKY/WX    TMP DP  RH WIND       PRES   REMARKS
BIG PINEY      CLOUDY    42  39  89 NW5       30.02F
PINEDALE       CLOUDY    41  41 100 N3        30.03S
DUBOIS         CLOUDY    39  36  87 W3        30.05F
LANDER         CLOUDY    45  43  93 W8        29.99F
RIVERTON       CLOUDY    47  44  90 NW8       30.01F
CASPER         LGT RAIN  45  43  93 N8        29.95F
DOUGLAS        RAIN      47  46  97 CALM      29.96F FOG

$$
WYZ021-027>030-104>119-240800-
SOUTHERN WYOMING

CITY           SKY/WX    TMP DP  RH WIND       PRES   REMARKS
EVANSTON       CLOUDY    40  36  86 SW5       30.02S
KEMMERER       CLOUDY    41  36  81 N7        30.03S
FORT BRIDGER   CLOUDY    43  41  93 S8        30.04F
ROCK SPRINGS   CLOUDY    42  37  82 NE12      29.99F
DIXON          CLOUDY    44  37  77 SE3       30.01R
RAWLINS        RAIN      37  34  89 N3        30.00S FOG
SARATOGA       LGT RAIN  39  37  93 CALM      30.00S
LARAMIE        MOCLDY    38  32  79 NE8       29.97S WCI  32
CHEYENNE       FAIR      44  39  82 NW6       29.94S
TORRINGTON     CLOUDY    52  52 100 S6        29.91F
PINE BLUFFS    PTSUNNY   45  43  93 SE7       29.95S

$$


USA.gov is the U.S. government's official web portal to all federal, state and local government web resources and services.